Location: Shannon
(40.5500°S, 175.4167°E)
Time: 20:08:39
(UTC+00:00)

Cosmos 1607 - Pass Details

Date: 17 November 2025
Orbit: 927 x 974 km, 65.0° (Epoch: 14 December)

Event Time Altitude Azimuth Distance (km) Brightness Sun altitude
Exits shadow 14:29:00 39° 340° (NNW) 1,440 4.4 -21.4°
Maximum altitude 14:31:36 79° 60° (ENE) 1,003 4.0 -21.1°
Drops below altitude 10° 14:38:04 10° 146° (SE) 2,746 7.6 -20.3°
Sets 14:40:39 0° 146° (SSE) 3,695 8.6 -20.0°
